Dahlonega, GA

6:10 AM EDT on June 29, 2017 (GMT -0400)
University of North Georgia Dahlonega WeatherSTEM | | Change Station

Elev 1538 ft 34.53 °N, 83.99 °W | Updated 1 minute ago

Mostly Cloudy
Mostly Cloudy
68.6 °F
Feels Like 68.6 °F
N
2.0
Wind Variable Wind from ESE

Today
High -- | Low -- °F
--% Chance of Precip.
Yesterday
High -- | Low -- °F
Precip. -- in
Pressure 30.17 in
Visibility 10.0 miles
Clouds Few 1500 ft
Dew Point 65 °F
Humidity 89%
Rainfall 0.00 in
Snow Depth Not available.
6:26 AM 8:52 PM
Waxing Crescent, 34% visible
METAR KGVL 290953Z AUTO 12003KT 10SM FEW015 21/19 A3022 RMK AO2 SLP217 T02060189
Pressure 30.17 in
Visibility 10.0 miles
Clouds Few 1500 ft
Dew Point 65 °F
Humidity 89%
Rainfall 0.00 in
Snow Depth Not available.
6:26 AM 8:52 PM
Waxing Crescent, 34% visible
METAR KGVL 290953Z AUTO 12003KT 10SM FEW015 21/19 A3022 RMK AO2 SLP217 T02060189

Get Severe Weather Alerts

Thanks for signing up!

Be on the lookout for a verification email in your inbox.

You'll start receiving the daily forecast at 6 AM.

×

10-Day Weather Forecast

Almanac

Astronomy

Jun. 29, 2017 Rise Set
Actual Time
Civil Twilight
Nautical Twilight
Astronomical Twilight
Moon
Length of Visible Light
Length of Day
Tomorrow will be .
, % of the Moon is Illuminated

Today's Extremes

State Highs State Lows

Community

WunderPhotos

Category 6

Welcome to Category 6. This is the collective home for Weather Underground's featured writeups by Dr. Jeff Masters (right), Bob Henson (left), Chris Burt, and other regular contributors.

Nearby

Air Quality

  Air Quality AQ Index Pollutant
Not available.

Snow Depth

Station Depth Elevation

Earthquake Activity

City Distance Mag. Time & Date
Minimum magnitude displayed is 2.5.

Coastal Water Temperatures

Place Temperature

Stations

Nearby Weather Stations

Station Location Temp. Windchill Dew Point Humidity Wind Precip. Elev Updated Type
                   

Watches & Warnings

There are currently no watches in effect.